When you browse on this site, cookies collect data to enhance your experience and personalize the content and advertising you see.
Visit our Privacy Policy to learn more. By continuing to use the site, you agree to this use of cookies and data.
  • In United Kingdom
  • List of Countries
  • For 7 days
  • Water Temperature
  • Weather Map
  • Weather Widgets
  • user-avatar
    Login

    Hourly Weather Newcastle

    Today, 29 January, Wednesday

    Time Temperature Precipitation Wind Pressure Humidity
    00:00 +25°C° 0.3 mm 4 mps 759 mmHg 97%
    01:00 +25°C° 0.3 mm 4 mps 759 mmHg 96%
    02:00 +25°C° 0 mm 4 mps 759 mmHg 96%
    03:00 +25°C° 0 mm 4 mps 759 mmHg 96%
    04:00 +25°C° 0 mm 4 mps 759 mmHg 96%
    05:00 +25°C° 0.2 mm 4 mps 760 mmHg 96%
    06:00 +25°C° 0.2 mm 5 mps 760 mmHg 96%
    07:00 +25°C° 0.2 mm 5 mps 761 mmHg 96%
    08:00 +25°C° 0.1 mm 5 mps 761 mmHg 90%
    09:00 +26°C° 0.1 mm 5 mps 761 mmHg 85%
    10:00 +27°C° 0.1 mm 5 mps 761 mmHg 79%
    11:00 +27°C° 0 mm 5 mps 761 mmHg 77%
    12:00 +27°C° 0 mm 5 mps 760 mmHg 75%
    13:00 +28°C° 0 mm 4 mps 760 mmHg 72%
    14:00 +27°C° 0 mm 5 mps 760 mmHg 73%
    15:00 +27°C° 0 mm 5 mps 760 mmHg 74%
    16:00 +27°C° 0 mm 5 mps 759 mmHg 74%
    17:00 +26°C° 0 mm 4 mps 760 mmHg 79%
    18:00 +26°C° 0 mm 4 mps 761 mmHg 83%
    19:00 +25°C° 0 mm 3 mps 761 mmHg 88%
    20:00 +25°C° 0 mm 3 mps 761 mmHg 88%
    21:00 +24°C° 0 mm 2 mps 762 mmHg 89%
    22:00 +24°C° 0 mm 2 mps 762 mmHg 89%
    23:00 +24°C° 0 mm 2 mps 762 mmHg 90%

    Tomorrow, 30 January, Thursday

    Time Temperature Precipitation Wind Pressure Humidity
    00:00 +24°C° 0 mm 2 mps 762 mmHg 90%
    01:00 +24°C° 0 mm 2 mps 761 mmHg 90%
    02:00 +24°C° 0 mm 2 mps 761 mmHg 91%
    03:00 +23°C° 0 mm 2 mps 761 mmHg 93%
    04:00 +23°C° 0 mm 2 mps 761 mmHg 94%
    05:00 +23°C° 0 mm 2 mps 761 mmHg 91%
    06:00 +24°C° 0 mm 2 mps 762 mmHg 88%
    07:00 +25°C° 0 mm 2 mps 762 mmHg 85%
    08:00 +26°C° 0 mm 2 mps 762 mmHg 79%
    09:00 +27°C° 0 mm 2 mps 762 mmHg 74%
    10:00 +28°C° 0 mm 2 mps 762 mmHg 68%
    11:00 +29°C° 0 mm 2 mps 761 mmHg 64%
    12:00 +31°C° 0 mm 3 mps 761 mmHg 60%
    13:00 +33°C° 0 mm 4 mps 760 mmHg 56%
    14:00 +32°C° 0 mm 4 mps 760 mmHg 59%
    15:00 +32°C° 0 mm 4 mps 760 mmHg 62%
    16:00 +32°C° 0 mm 5 mps 759 mmHg 64%
    17:00 +29°C° 0 mm 5 mps 759 mmHg 70%
    18:00 +28°C° 0 mm 4 mps 760 mmHg 76%
    19:00 +26°C° 0 mm 4 mps 760 mmHg 83%
    20:00 +26°C° 0 mm 4 mps 760 mmHg 86%
    21:00 +25°C° 0 mm 4 mps 761 mmHg 89%
    22:00 +23°C° 0 mm 4 mps 761 mmHg 92%
    23:00 +23°C° 0 mm 4 mps 761 mmHg 93%

    Day after tomorrow, 31 January, Friday

    Time Temperature Precipitation Wind Pressure Humidity
    00:00 +24°C° 0 mm 3 mps 760 mmHg 95%
    01:00 +22°C° 0 mm 3 mps 760 mmHg 96%
    02:00 +22°C° 0 mm 3 mps 760 mmHg 96%
    03:00 +22°C° 0 mm 3 mps 760 mmHg 97%
    04:00 +21°C° 0 mm 3 mps 760 mmHg 97%
    05:00 +22°C° 0 mm 3 mps 761 mmHg 93%
    06:00 +24°C° 0 mm 3 mps 761 mmHg 89%
    07:00 +25°C° 0 mm 3 mps 761 mmHg 86%
    08:00 +28°C° 0 mm 3 mps 761 mmHg 74%
    09:00 +31°C° 0 mm 3 mps 761 mmHg 62%
    10:00 +34°C° 0 mm 3 mps 761 mmHg 50%
    11:00 +36°C° 0 mm 4 mps 761 mmHg 44%
    12:00 +39°C° 0 mm 5 mps 760 mmHg 38%
    13:00 +41°C° 0 mm 6 mps 760 mmHg 32%
    14:00 +40°C° 0 mm 7 mps 759 mmHg 36%
    15:00 +39°C° 0 mm 7 mps 759 mmHg 39%
    16:00 +38°C° 0 mm 8 mps 758 mmHg 43%
    17:00 +34°C° 0 mm 7 mps 759 mmHg 51%
    18:00 +32°C° 0 mm 7 mps 759 mmHg 60%
    19:00 +28°C° 0 mm 7 mps 759 mmHg 68%
    20:00 +27°C° 0 mm 6 mps 760 mmHg 72%
    21:00 +26°C° 0 mm 5 mps 760 mmHg 75%
    22:00 +25°C° 0 mm 5 mps 760 mmHg 79%
    23:00 +23°C° 0 mm 4 mps 760 mmHg 82%

    1 February, Saturday

    Time Temperature Precipitation Wind Pressure Humidity
    00:00 +22°C° 0 mm 4 mps 760 mmHg 86%
    01:00 +22°C° 0 mm 4 mps 759 mmHg 90%
    02:00 +21°C° 0 mm 3 mps 759 mmHg 91%
    03:00 +21°C° 0 mm 3 mps 759 mmHg 93%
    04:00 +21°C° 0 mm 3 mps 759 mmHg 94%
    05:00 +22°C° 0 mm 3 mps 759 mmHg 87%
    06:00 +25°C° 0 mm 3 mps 759 mmHg 79%
    07:00 +26°C° 0 mm 3 mps 760 mmHg 72%
    08:00 +29°C° 0 mm 3 mps 760 mmHg 61%
    09:00 +34°C° 0 mm 4 mps 760 mmHg 51%
    10:00 +37°C° 0 mm 4 mps 760 mmHg 40%
    11:00 +39°C° 0 mm 5 mps 759 mmHg 38%
    12:00 +41°C° 0 mm 5 mps 758 mmHg 35%
    13:00 +42°C° 0 mm 5 mps 757 mmHg 32%
    14:00 +42°C° 0 mm 6 mps 757 mmHg 32%
    15:00 +42°C° 0 mm 6 mps 756 mmHg 31%
    16:00 +43°C° 0 mm 7 mps 756 mmHg 31%
    17:00 +40°C° 0 mm 7 mps 756 mmHg 39%
    18:00 +36°C° 0 mm 6 mps 756 mmHg 47%
    19:00 +33°C° 0 mm 6 mps 756 mmHg 54%
    20:00 +32°C° 0 mm 5 mps 756 mmHg 58%
    21:00 +30°C° 0 mm 4 mps 757 mmHg 62%
    22:00 +29°C° 0 mm 4 mps 757 mmHg 65%
    23:00 +28°C° 0 mm 4 mps 756 mmHg 66%

    2 February, Sunday

    Time Temperature Precipitation Wind Pressure Humidity
    00:00 +28°C° 0 mm 3 mps 756 mmHg 67%
    01:00 +28°C° 0 mm 3 mps 756 mmHg 67%
    02:00 +28°C° 0 mm 3 mps 755 mmHg 67%
    03:00 +27°C° 0 mm 3 mps 755 mmHg 67%
    04:00 +27°C° 0 mm 3 mps 755 mmHg 66%
    05:00 +28°C° 0 mm 3 mps 756 mmHg 61%
    06:00 +30°C° 0 mm 3 mps 756 mmHg 56%
    07:00 +31°C° 0 mm 3 mps 756 mmHg 52%
    08:00 +34°C° 0 mm 3 mps 756 mmHg 46%
    09:00 +36°C° 0 mm 3 mps 756 mmHg 40%
    10:00 +38°C° 0 mm 3 mps 756 mmHg 34%
    11:00 +40°C° 0 mm 4 mps 756 mmHg 33%
    12:00 +41°C° 0 mm 4 mps 755 mmHg 32%
    13:00 +42°C° 0 mm 4 mps 755 mmHg 30%
    14:00 +40°C° 0 mm 4 mps 754 mmHg 38%
    15:00 +37°C° 0 mm 4 mps 754 mmHg 45%
    16:00 +35°C° 0 mm 4 mps 753 mmHg 53%
    17:00 +33°C° 0 mm 5 mps 754 mmHg 63%
    18:00 +30°C° 0 mm 5 mps 754 mmHg 73%
    19:00 +28°C° 0 mm 6 mps 755 mmHg 83%
    20:00 +27°C° 0 mm 6 mps 755 mmHg 85%
    21:00 +27°C° 0 mm 7 mps 756 mmHg 86%
    22:00 +26°C° 0 mm 7 mps 756 mmHg 87%
    23:00 +26°C° 0.7 mm 6 mps 756 mmHg 89%

    3 February, Monday

    Time Temperature Precipitation Wind Pressure Humidity
    00:00 +24°C° 0.7 mm 6 mps 756 mmHg 91%
    01:00 +24°C° 0.7 mm 6 mps 756 mmHg 93%
    02:00 +25°C° 0.1 mm 4 mps 756 mmHg 93%
    03:00 +24°C° 0.1 mm 3 mps 756 mmHg 93%
    04:00 +24°C° 0.1 mm 2 mps 756 mmHg 93%
    05:00 +25°C° 0 mm 3 mps 756 mmHg 92%
    06:00 +25°C° 0 mm 3 mps 756 mmHg 91%
    07:00 +25°C° 0 mm 3 mps 756 mmHg 90%
    08:00 +26°C° 0.1 mm 3 mps 756 mmHg 87%
    09:00 +26°C° 0.1 mm 3 mps 756 mmHg 83%
    10:00 +27°C° 0.1 mm 3 mps 756 mmHg 80%
    11:00 +27°C° 0.1 mm 4 mps 756 mmHg 80%
    12:00 +27°C° 0.1 mm 4 mps 755 mmHg 80%
    13:00 +27°C° 0.1 mm 5 mps 755 mmHg 80%
    14:00 +26°C° 0.3 mm 5 mps 755 mmHg 83%
    15:00 +26°C° 0.3 mm 5 mps 755 mmHg 86%
    16:00 +25°C° 0.3 mm 5 mps 755 mmHg 90%
    17:00 +23°C° 0.6 mm 5 mps 755 mmHg 91%
    18:00 +23°C° 0.6 mm 4 mps 756 mmHg 93%
    19:00 +23°C° 0.6 mm 4 mps 756 mmHg 94%
    20:00 +22°C° 0.3 mm 4 mps 757 mmHg 94%
    21:00 +22°C° 0.3 mm 4 mps 757 mmHg 94%
    22:00 +22°C° 0.3 mm 4 mps 758 mmHg 94%
    23:00 +22°C° 0.7 mm 5 mps 757 mmHg 95%
    Show more